Date,TemperatureHighF,TemperatureAvgF,TemperatureLowF,DewpointHighF,DewpointAvgF,DewpointLowF,HumidityHigh,HumidityAvg,HumidityLow,PressureMaxIn,PressureMinIn,WindSpeedMaxMPH,WindSpeedAvgMPH,GustSpeedMaxMPH,PrecipitationSumIn
2013-5-1,64.8,60.7,57.5,57.7,56.4,55.2,94,86,75,30.08,29.88,7,1,11,0.01
2013-5-2,76.4,63.1,55.1,60.9,57.1,52.9,94,82,53,30.09,29.95,9,2,14,0.00
2013-5-3,83.9,67.1,52.8,61.1,49.4,20.8,92,61,10,29.99,29.77,4,1,11,0.01
2013-5-4,64.7,60.8,57.8,58.5,55.5,52.3,93,83,74,29.84,29.75,10,4,15,0.00
2013-5-5,63.5,59.7,58.0,55.8,54.3,52.9,89,82,72,29.93,29.82,7,2,14,0.00
2013-5-6,64.0,60.2,57.0,58.8,56.6,53.8,96,88,71,30.00,29.89,8,2,12,0.24
2013-5-7,66.8,61.4,57.0,57.1,54.7,49.6,93,80,56,30.06,29.96,5,1,11,0.00
2013-5-8,65.4,60.8,55.8,57.0,55.1,52.8,91,82,71,30.08,30.04,6,2,12,0.00
2013-5-9,64.9,60.1,52.9,57.2,54.8,50.3,92,83,73,30.08,30.02,4,1,8,0.00
2013-5-10,67.5,61.9,56.0,60.4,57.2,53.3,93,85,77,30.07,29.99,8,2,11,0.00
2013-5-11,68.2,62.4,58.4,62.5,59.4,56.4,96,90,82,30.06,29.96,7,1,12,0.00
2013-5-12,77.6,65.5,59.4,64.9,61.2,58.5,98,87,58,30.03,29.88,6,1,11,0.00
2013-5-13,84.3,70.8,60.3,64.0,59.5,52.9,93,70,36,29.95,29.84,7,1,7,0.00
2013-5-14,67.1,62.6,58.2,59.9,57.4,54.9,91,83,74,29.99,29.88,7,2,14,0.00
2013-5-15,65.3,61.3,59.2,57.5,55.6,54.0,88,82,74,30.02,29.94,6,2,12,0.00
2013-5-16,66.0,62.2,59.6,58.6,56.3,53.9,87,81,73,29.96,29.89,5,1,10,0.00
2013-5-17,61.2,60.6,60.1,57.3,56.7,55.2,89,87,82,29.92,29.89,1,0,6,0.00
2013-5-18,67.6,63.4,59.0,59.4,57.3,55.1,89,81,69,30.02,29.95,5,1,10,0.00
2013-5-19,66.3,62.6,58.6,58.7,57.2,54.6,92,83,73,29.97,29.87,4,1,8,0.00
2013-5-20,68.5,63.1,57.7,61.4,58.6,54.8,91,85,77,29.93,29.87,5,1,11,0.00
2013-5-21,67.7,63.3,60.7,61.3,59.2,57.5,92,87,77,29.92,29.83,3,1,10,0.00
2013-5-22,66.5,63.0,61.1,57.9,56.7,54.9,85,80,71,29.84,29.77,5,1,12,0.00
2013-5-23,65.6,61.5,58.4,56.7,54.8,53.0,85,79,70,29.92,29.81,8,2,12,0.00
2013-5-24,64.1,60.8,56.3,55.6,53.8,51.6,85,78,70,29.98,29.90,5,1,12,0.00
2013-5-25,65.1,59.9,51.6,57.0,53.5,48.1,88,80,67,30.02,29.96,4,1,11,0.00
2013-5-26,65.5,61.0,57.3,56.6,54.7,52.8,87,80,72,30.04,29.97,5,1,10,0.00
2013-5-27,66.7,61.2,54.8,59.2,56.0,51.9,91,83,74,29.99,29.86,5,1,9,0.00
2013-5-28,67.9,63.9,60.6,60.3,57.9,55.4,89,81,73,29.88,29.74,5,1,11,0.00
2013-5-29,70.4,64.6,60.7,62.5,59.5,57.1,90,84,75,29.80,29.71,4,1,7,0.00
2013-5-30,68.8,63.6,58.0,60.8,58.9,55.4,92,85,74,29.87,29.74,5,1,13,0.00
2013-5-31,67.6,64.1,61.1,61.1,59.0,57.1,89,84,76,29.89,29.80,5,1,8,0.00